Temperature
18 18 18 18 18 18 18 18 18 17 17 18 18 18 18 18 18 18 18 18 18 18 18 18 18 18 18 18 18 18 18 18 17 17 17 17 17 17 17 17 17 17 17
18 18 18 18 18 18 18 18 17 17 18 17 17 18 18 18 18 17 18 18 18 18 18 18 18 18 18 18 18 18 18 18 17 17 17 17 17 17 17 17 17 17 17
18 18 18 18 18 17 17 17 17 17 18 17 17 17 18 17 17 17 17 17 18 18 18 18 18 18 18 18 18 18 18 17 17 17 17 17 17 17 17 17 17 17 17
18 18 18 18 17 17 17 17 17 17 17 17 17 17 18 18 17 17 17 17 17 17 17 18 18 18 18 18 18 18 17 17 17 17 17 17 17 17 17 17 17 17 17
18 18 17 17 17 17 17 17 17 17 17 17 17 17 17 18 17 17 17 17 17 17 17 17 18 18 18 18 18 17 17 17 17 17 17 17 17 17 17 17 17 17 17
18 18 17 17 17 17 17 17 17 17 17 17 18 17 17 17 17 17 17 17 17 17 17 17 17 17 17 17 18 17 17 17 17 17 17 17 17 17 17 17 17 17 17
17 17 17 17 17 17 17 17 17 17 17 17 18 18 18 18 17 17 17 17 17 17 17 17 17 17 17 17 17 17 17 17 17 17 17 17 17 17 17 17 17 17 17
17 17 17 17 17 17 17 17 17 17 17 17 17 18 19 18 17 17 17 17 17 17 17 17 17 17 17 17 17 17 17 17 17 17 17 17 17 17 17 17 17 17 17
17 17 17 17 17 17 17 17 17 17 17 17 17 18 18 19 18 18 17 17 17 17 17 17 17 17 17 17 17 17 17 17 17 17 17 17 17 17 17 16 16 16 16
17 17 17 17 17 17 17 17 17 17 17 17 17 17 17 17 18 18 17 17 17 17 17 17 17 17 17 17 17 16 17 17 17 17 17 16 16 16 16 16 16 16 16
17 17 16 17 17 16 16 16 16 17 17 17 17 17 17 17 18 18 18 17 17 17 17 17 17 16 16 16 16 16 16 16 16 16 16 16 16 16 16 16 16 16 16
17 17 16 16 16 16 16 16 16 16 16 16 16 17 17 17 17 17 17 17 17 17 17 17 16 16 16 16 16 16 16 16 16 16 16 16 16 16 16 16 16 16 16
17 17 16 16 16 16 16 16 16 16 16 16 16 16 17 17 17 17 17 17 17 17 16 17 16 16 16 16 16 16 16 16 16 16 16 16 16 16 16 16 16 16 15
17 16 16 16 16 16 16 16 16 16 16 16 16 16 16 16 17 17 17 17 17 17 17 16 16 16 16 16 16 16 16 16 16 16 16 16 16 16 16 16 16 15 15
16 16 16 16 16 16 16 16 16 16 16 16 16 16 16 16 16 16 16 16 16 17 17 16 16 15 15 15 15 15 15 15 15 15 15 15 15 15 15 15 15 15 15
16 16 16 16 16 16 16 16 16 16 16 16 16 16 16 16 16 16 16 16 16 16 16 16 15 15 15 15 15 15 15 15 15 15 15 15 15 15 15 15 15 15 15
16 16 16 15 15 15 16 16 16 16 16 16 16 16 16 16 15 16 15 16 16 16 16 16 15 15 15 15 15 15 14 14 15 15 15 15 15 15 15 15 15 15 15
16 16 16 15 15 15 15 15 15 15 15 15 15 15 15 15 15 15 15 15 15 15 15 15 15 15 14 14 14 14 14 14 14 14 15 15 15 15 15 15 15 14 14
16 16 16 15 15 15 15 15 15 15 15 15 15 15 15 15 15 15 15 15 15 15 15 15 14 14 14 14 14 14 14 14 14 14 14 14 14 14 14 14 14 14 14
16 16 15 15 15 15 15 15 15 15 15 15 15 14 14 14 14 14 14 14 14 14 14 14 14 14 14 14 14 14 14 14 14 14 14 14 14 14 14 14 14 14 14
15 15 15 15 15 15 14 14 15 14 14 14 14 14 14 14 14 14 14 14 14 14 14 14 14 14 14 14 14 14 14 14 14 13 13 13 13 13 13 13 13 13 14
15 15 15 15 14 14 14 14 14 14 14 14 14 14 14 14 14 14 14 14 14 13 13 13 13 13 13 13 13 13 13 14 13 13 13 13 13 13 13 13 13 13 13
15 15 14 14 14 14 14 14 14 14 13 13 13 13 13 13 13 13 13 13 13 13 13 13 13 13 13 13 13 13 13 13 13 13 13 13 13 13 13 13 13 13 13
15 14 14 14 14 14 14 14 14 13 13 13 13 13 13 13 13 13 13 13 12 13 13 12 12 12 12 12 12 12 12 12 12 12 12 13 13 13 13 13 13 12 13
14 14 14 14 13 13 13 13 13 13 13 13 12 12 12 12 12 12 12 12 12 12 12 12 12 12 12 12 12 12 12 12 13 13 12 12 12 12 12 12 12 12 12
14 14 13 13 13 13 13 13 13 13 13 12 12 12 12 12 12 12 12 12 12 12 12 12 12 12 12 12 12 12 12 12 12 12 12 12 12 12 12 12 12 12 12
Wind_Speed
2 2 2 2 2 2 2 1 1 1 1 2 1 1 1 2 2 2 3 7 8 9 9 9 9 9 10 10 10 11 11 11 11 11 11 11 11 11 11 10 10 9 9
2 2 2 2 2 2 1 0 1 1 1 1 1 1 1 1 1 2 2 6 9 9 9 9 9 9 9 10 10 11 11 11 11 12 11 11 11 11 11 11 10 10 9
2 2 2 2 2 2 1 1 1 1 1 1 1 1 1 1 1 1 2 3 5 9 9 8 8 8 8 9 9 10 11 10 10 10 10 10 10 11 11 11 10 10 10
2 2 2 2 2 1 2 2 2 1 2 1 1 1 1 1 1 1 2 2 3 4 8 9 7 7 6 7 8 9 10 10 10 10 9 9 9 10 11 10 10 10 10
2 2 2 2 1 2 2 2 3 2 1 2 1 1 1 1 1 1 1 2 3 4 5 9 9 7 6 7 7 8 9 10 10 10 10 9 9 9 10 10 10 9 9
3 2 1 2 2 2 2 3 2 2 1 1 1 2 1 1 1 1 1 2 2 3 4 5 6 8 8 7 7 8 8 9 9 10 10 10 9 9 9 9 10 10 10
3 2 2 2 2 2 3 2 2 1 2 2 1 2 2 2 2 1 1 1 1 2 3 4 3 3 6 9 9 8 8 8 8 8 8 8 9 9 9 9 9 9 10
3 2 3 2 3 2 2 2 2 2 2 1 1 1 1 2 1 2 2 1 1 2 2 3 3 3 3 4 8 9 8 8 8 8 8 8 8 9 9 9 9 9 10
3 4 3 3 3 2 2 2 2 2 1 1 2 2 1 1 1 2 2 1 1 1 2 2 3 4 4 4 5 8 7 7 7 7 7 7 7 8 9 9 9 9 9
3 3 3 2 2 2 2 2 2 2 2 1 1 1 2 2 1 1 2 2 1 2 2 2 3 4 4 4 4 5 6 5 5 5 5 5 6 6 7 8 8 8 8
3 3 2 2 2 2 2 3 3 3 2 3 2 1 1 0 1 1 0 1 1 1 1 2 2 3 4 3 4 5 6 5 4 3 3 4 4 6 6 7 8 8 8
2 2 2 2 2 2 2 2 2 2 3 3 3 2 1 1 1 0 1 1 0 0 1 1 2 2 3 3 3 6 6 5 3 3 2 2 3 4 6 6 7 7 7
1 2 2 2 2 2 2 3 2 3 2 2 3 2 2 1 1 1 1 1 1 1 1 1 1 1 2 3 3 6 6 5 3 3 2 2 2 3 4 5 6 6 7
1 2 2 2 2 3 2 2 2 2 2 2 3 3 2 2 1 1 1 1 2 2 1 0 1 1 1 2 3 5 5 7 5 4 3 3 2 3 3 5 6 6 6
0 1 1 2 2 2 2 2 2 2 2 2 2 2 2 1 2 2 2 2 3 2 1 1 1 1 1 2 3 4 4 7 6 5 4 4 3 3 3 4 5 6 6
1 1 2 2 2 2 2 2 2 2 2 2 2 2 3 2 1 2 2 2 2 3 2 1 0 1 1 0 2 3 3 7 7 6 5 4 4 4 4 4 4 5 6
0 1 1 2 2 2 2 2 2 2 2 2 2 2 2 2 2 2 1 1 2 2 3 2 1 1 0 1 1 3 4 4 5 8 6 5 4 4 4 4 4 5 5
1 0 1 2 2 2 2 2 3 2 2 2 2 2 2 2 2 2 2 2 2 2 3 2 1 1 1 1 2 3 3 3 3 8 8 6 5 5 5 5 4 5 5
1 0 1 2 2 2 2 2 2 2 3 3 3 3 3 2 2 2 2 2 2 2 2 3 2 1 1 1 2 3 2 2 3 6 9 9 7 6 6 5 5 5 5
1 1 1 1 2 2 2 3 2 2 3 3 3 3 3 3 3 3 3 3 3 3 3 3 2 2 1 1 2 3 3 2 3 3 3 5 7 9 9 8 6 5 5
1 0 1 1 2 2 2 3 3 2 3 3 3 3 3 3 3 3 3 2 3 3 3 3 3 3 2 1 2 3 3 3 3 3 3 3 4 5 6 9 8 6 6
0 1 1 1 2 3 5 4 4 3 3 3 3 3 2 2 1 0 2 2 2 3 3 3 3 3 3 3 3 4 3 4 3 2 3 4 4 4 4 4 6 7 7
1 1 2 2 2 3 4 3 4 4 3 3 3 3 3 2 2 1 1 3 2 2 3 4 4 4 4 3 3 4 3 4 4 3 3 5 4 4 4 4 8 8 8
1 1 2 2 2 2 3 3 3 3 2 2 2 2 2 2 3 3 3 2 2 2 3 4 3 4 3 3 4 5 4 4 5 4 4 5 4 4 4 3 8 9 9
0 0 1 2 2 2 3 3 4 2 2 2 2 2 2 2 3 4 2 2 2 1 1 1 2 2 2 3 4 4 4 5 4 3 3 4 4 4 4 4 6 11 12
0 0 1 2 2 2 3 2 4 2 2 2 1 1 2 3 3 3 2 2 2 1 1 1 1 3 3 4 5 5 5 5 5 4 2 4 4 4 5 4 4 4 7
Wind_Direction
75 76 88 93 99 114 136 151 137 137 186 193 200 203 223 218 204 200 160 167 183 190 194 195 196 199 199 204 206 204 202 203 198 195 191 191 193 193 194 193 187 187 188
69 62 92 81 74 65 36 30 137 177 181 148 202 199 236 220 182 205 182 170 181 185 190 195 200 204 204 206 206 203 202 200 194 193 191 193 194 193 191 186 186 188 191
60 45 60 71 61 55 52 51 52 68 105 129 138 177 184 146 138 177 185 176 172 175 181 186 194 197 196 200 199 197 193 186 184 187 189 190 190 187 186 188 191 192 193
52 29 42 56 50 38 34 33 20 40 64 70 70 49 60 107 126 169 169 165 173 174 165 166 175 180 181 186 186 184 182 178 176 181 182 181 182 185 187 191 193 194 194
54 35 34 38 24 20 19 15 38 28 58 59 76 86 61 77 107 131 145 149 157 179 169 158 168 172 172 175 175 175 175 175 177 179 179 180 181 185 190 191 192 191 192
47 27 53 37 12 25 22 28 29 38 43 51 51 64 54 79 116 110 140 128 149 167 164 164 173 169 166 164 162 163 166 171 178 180 181 184 186 188 192 197 199 199 197
39 30 29 38 15 30 19 19 20 59 59 51 78 99 111 110 99 95 91 88 113 144 148 161 177 164 162 162 159 158 163 170 175 178 182 184 186 189 192 198 203 203 201
33 46 30 15 31 35 29 18 9 10 31 30 337 317 146 139 126 99 98 114 104 128 147 149 139 148 164 167 147 154 163 169 175 178 180 185 190 192 195 200 202 205 205
44 42 38 24 23 16 35 11 354 11 15 21 358 333 331 6 88 120 112 101 103 113 138 141 145 145 155 150 148 149 155 166 176 180 181 185 189 192 197 202 207 207 204
51 57 50 31 9 10 21 346 18 339 318 340 12 345 343 354 309 156 133 110 127 135 132 146 148 142 145 149 135 126 140 156 161 173 180 181 184 191 197 202 204 206 204
53 46 38 28 10 1 3 350 353 333 322 324 333 333 335 310 275 282 292 26 77 124 152 166 162 150 153 153 146 128 127 131 145 160 175 188 193 197 199 201 203 204 204
60 42 29 15 356 355 354 337 333 337 334 333 323 326 316 320 316 308 243 239 316 262 192 183 189 177 172 163 151 120 138 142 148 159 174 192 207 213 207 202 203 203 204
53 34 7 358 348 346 338 334 337 334 334 321 311 313 308 314 305 274 250 258 272 244 181 195 183 198 179 173 162 139 150 148 151 165 175 193 211 219 213 202 200 200 199
27 16 351 344 337 329 329 331 320 319 324 314 314 312 300 297 279 245 247 245 251 240 205 185 170 178 169 173 139 163 157 149 159 177 187 193 205 209 201 195 190 193 194
296 337 309 310 320 328 326 315 327 320 320 306 304 295 296 303 284 267 261 270 267 266 255 199 208 160 184 162 143 176 173 153 169 180 183 176 175 173 171 179 186 189 187
337 301 291 306 314 319 314 306 300 322 312 307 307 321 309 302 293 274 269 274 279 275 277 276 292 353 7 210 154 196 185 162 170 174 176 174 175 175 173 174 180 183 186
316 313 303 298 300 310 312 303 298 309 306 308 305 304 293 303 288 271 260 260 267 263 258 281 304 61 71 301 235 233 219 206 170 160 167 172 173 173 178 180 175 176 183
242 345 337 315 301 312 318 305 301 312 306 306 307 304 292 274 267 274 265 265 263 268 258 265 281 268 239 237 253 254 231 211 200 158 166 175 177 179 183 183 185 186 188
259 330 2 347 332 330 330 324 320 318 310 307 307 303 298 294 285 272 262 259 252 242 246 242 256 281 273 273 266 256 246 246 233 175 173 180 181 186 187 184 183 185 188
233 282 333 350 341 335 350 339 321 305 306 313 315 310 302 293 282 270 249 242 245 244 238 244 247 247 256 273 264 259 247 225 249 237 205 193 183 190 189 186 186 186 188
231 251 307 328 323 317 355 350 329 304 296 300 310 309 309 323 330 312 296 267 239 238 238 240 244 250 243 258 267 266 254 251 238 243 255 235 205 208 197 190 188 190 194
255 292 293 306 316 337 27 1 330 321 307 295 301 301 292 290 315 252 341 332 304 252 251 254 253 248 251 256 263 265 265 262 264 250 262 255 243 237 226 210 172 181 194
211 264 299 310 325 357 26 1 334 309 305 315 317 317 311 329 325 291 206 208 233 253 258 260 261 263 261 261 270 260 262 275 283 289 275 265 249 243 233 184 163 182 194
248 280 310 312 315 354 26 343 314 282 298 315 313 316 321 330 348 325 273 248 233 220 230 245 263 270 279 285 270 267 266 259 251 238 249 264 265 262 250 210 171 183 195
272 331 328 319 327 360 31 351 311 290 294 299 303 320 321 320 15 342 286 258 250 236 128 83 333 323 334 294 282 268 259 260 260 247 239 267 278 277 264 246 193 187 198
95 34 40 356 344 351 38 2 314 299 311 307 313 321 28 18 30 346 282 268 261 288 298 222 227 229 234 222 225 250 261 265 271 266 242 259 265 273 270 258 247 217 211
Height
1514 1513 1511 1512 1512 1512 1512 1512 1512 1512 1512 1513 1514 1514 1515 1516 1516 1517 1517 1517 1519 1520 1521 1523 1524 1526 1527 1529 1530 1531 1532 1534 1536 1537 1539 1541 1542 1544 1545 1546 1548 1549 1550
1514 1513 1512 1512 1512 1512 1512 1511 1511 1510 1511 1512 1512 1513 1513 1514 1514 1515 1516 1516 1517 1518 1519 1521 1522 1524 1525 1527 1528 1528 1530 1532 1534 1536 1537 1539 1541 1542 1544 1545 1547 1548 1549
1515 1514 1514 1513 1512 1512 1511 1511 1510 1509 1509 1511 1511 1512 1512 1513 1513 1514 1515 1515 1516 1517 1518 1519 1521 1522 1524 1525 1526 1527 1529 1531 1533 1534 1536 1538 1540 1541 1543 1544 1545 1547 1548
1517 1516 1515 1514 1513 1512 1511 1510 1509 1509 1509 1510 1511 1512 1512 1512 1512 1513 1514 1514 1515 1516 1517 1518 1520 1521 1523 1524 1524 1526 1528 1530 1531 1533 1535 1537 1538 1540 1541 1542 1544 1545 1546
1518 1517 1516 1514 1513 1512 1511 1511 1509 1509 1510 1510 1511 1511 1512 1512 1513 1513 1513 1514 1514 1515 1517 1517 1519 1521 1522 1523 1524 1525 1527 1528 1530 1532 1534 1535 1537 1538 1540 1541 1542 1544 1545
1519 1518 1517 1516 1515 1514 1512 1511 1510 1510 1510 1511 1512 1512 1512 1513 1513 1513 1514 1514 1514 1514 1516 1517 1519 1520 1521 1523 1524 1525 1526 1528 1529 1531 1532 1534 1535 1536 1538 1539 1540 1542 1543
1519 1519 1518 1517 1516 1515 1514 1513 1512 1512 1512 1512 1512 1513 1513 1513 1513 1513 1514 1513 1513 1513 1515 1516 1518 1520 1521 1522 1524 1525 1526 1527 1528 1530 1531 1532 1533 1535 1536 1537 1538 1540 1541
1520 1519 1518 1518 1517 1515 1514 1513 1513 1513 1513 1513 1514 1513 1513 1515 1514 1514 1514 1513 1514 1514 1515 1516 1517 1519 1521 1522 1523 1524 1525 1527 1528 1529 1529 1530 1531 1533 1534 1535 1536 1537 1538
1520 1519 1519 1518 1517 1517 1516 1515 1514 1514 1514 1514 1514 1515 1514 1513 1514 1515 1514 1514 1514 1515 1516 1516 1517 1518 1520 1521 1522 1523 1524 1526 1527 1527 1528 1529 1530 1530 1531 1532 1533 1534 1535
1521 1521 1520 1519 1518 1518 1517 1516 1516 1515 1515 1516 1515 1514 1515 1515 1515 1515 1515 1515 1515 1515 1515 1516 1517 1518 1519 1520 1521 1522 1523 1524 1525 1526 1527 1527 1528 1528 1529 1529 1530 1532 1533
1522 1522 1521 1520 1519 1519 1518 1517 1516 1516 1516 1516 1516 1515 1515 1515 1515 1515 1515 1515 1515 1515 1516 1516 1517 1518 1518 1519 1520 1521 1522 1523 1524 1524 1525 1525 1526 1526 1526 1527 1528 1529 1530
1523 1522 1521 1520 1520 1519 1518 1517 1516 1516 1515 1515 1515 1515 1515 1515 1515 1515 1515 1515 1515 1516 1515 1516 1516 1517 1517 1518 1519 1519 1520 1521 1522 1522 1522 1523 1523 1523 1524 1524 1525 1526 1527
1524 1522 1522 1520 1520 1519 1518 1517 1516 1516 1515 1514 1514 1515 1515 1515 1515 1515 1515 1515 1515 1515 1515 1515 1515 1516 1516 1516 1517 1518 1518 1519 1520 1520 1520 1521 1521 1521 1522 1522 1523 1524 1525
1523 1522 1521 1520 1519 1519 1518 1517 1516 1515 1514 1514 1514 1513 1513 1513 1513 1514 1514 1514 1514 1515 1514 1515 1514 1514 1515 1515 1515 1516 1516 1517 1517 1518 1519 1519 1519 1520 1520 1520 1521 1522 1522
1522 1521 1520 1519 1519 1518 1517 1516 1515 1514 1514 1513 1513 1513 1512 1512 1513 1513 1513 1513 1514 1513 1514 1514 1514 1513 1513 1513 1513 1514 1514 1515 1515 1516 1516 1517 1517 1517 1518 1518 1519 1519 1520
1520 1520 1519 1518 1518 1517 1516 1515 1514 1513 1513 1512 1511 1511 1511 1511 1511 1511 1512 1512 1512 1513 1513 1513 1512 1512 1512 1512 1512 1513 1513 1513 1513 1514 1514 1514 1515 1515 1515 1516 1516 1517 1518
1519 1518 1518 1517 1517 1516 1515 1514 1513 1512 1511 1511 1510 1510 1509 1509 1509 1510 1510 1510 1510 1511 1511 1511 1511 1511 1510 1510 1511 1511 1512 1512 1512 1511 1512 1512 1512 1513 1513 1513 1514 1515 1515
1518 1517 1517 1516 1515 1514 1513 1512 1512 1511 1510 1510 1509 1509 1508 1508 1507 1508 1508 1508 1508 1509 1509 1509 1509 1509 1509 1509 1509 1509 1510 1511 1510 1509 1509 1509 1510 1510 1511 1511 1511 1512 1513
1517 1517 1516 1515 1514 1513 1512 1511 1510 1509 1509 1508 1508 1507 1507 1506 1506 1506 1506 1506 1507 1507 1507 1507 1507 1508 1508 1508 1508 1508 1508 1508 1509 1508 1507 1507 1507 1507 1508 1508 1509 1509 1510
1516 1515 1515 1514 1513 1512 1511 1510 1509 1508 1507 1506 1506 1505 1505 1504 1504 1503 1504 1503 1504 1504 1505 1505 1505 1506 1506 1506 1506 1506 1506 1506 1506 1507 1506 1506 1505 1505 1505 1505 1506 1506 1507
1515 1514 1513 1513 1512 1511 1510 1508 1507 1507 1505 1505 1504 1503 1503 1502 1501 1501 1502 1501 1502 1502 1503 1503 1503 1503 1504 1504 1504 1504 1504 1504 1504 1504 1504 1504 1504 1503 1503 1503 1503 1503 1503
1513 1513 1512 1512 1511 1510 1508 1507 1506 1505 1504 1503 1502 1501 1500 1500 1499 1498 1498 1499 1499 1499 1500 1500 1501 1501 1501 1501 1502 1502 1502 1502 1503 1503 1502 1502 1502 1502 1501 1501 1500 1500 1501
1512 1511 1511 1510 1509 1508 1506 1505 1504 1503 1502 1501 1500 1499 1499 1498 1497 1497 1496 1496 1496 1497 1497 1497 1498 1498 1498 1499 1499 1499 1499 1500 1500 1500 1500 1499 1499 1499 1499 1499 1498 1498 1498
1510 1510 1510 1509 1508 1506 1505 1503 1502 1502 1501 1500 1499 1498 1497 1496 1496 1495 1495 1495 1495 1494 1494 1495 1495 1495 1496 1495 1496 1497 1497 1497 1497 1497 1497 1497 1497 1497 1497 1496 1495 1495 1495
1508 1508 1508 1507 1506 1505 1503 1502 1501 1500 1499 1498 1497 1496 1495 1494 1493 1493 1493 1493 1493 1493 1493 1492 1492 1492 1492 1492 1493 1494 1494 1495 1495 1495 1494 1494 1494 1494 1494 1494 1493 1492 1492
1506 1506 1505 1506 1505 1503 1501 1500 1499 1499 1498 1497 1495 1494 1493 1492 1491 1491 1491 1491 1491 1491 1491 1490 1490 1489 1489 1489 1490 1490 1491 1492 1492 1492 1491 1492 1492 1491 1491 1491 1491 1491 1490